Location: Unspecified
(0.0000°N, 0.0000°E)
Time: 16:16:26
(UTC+00:00)

Hubble Space Telescope - Visible Passes

Search period start: 14 August 2020 00:00
Search period end: 24 August 2020 00:00
Orbit: 536 x 540 km, 28.5° (Epoch: 14 August)

Date Brightness Start Highest point End Pass type
(mag) Time Alt. Az. Time Alt. Az. Time Alt. Az.
17 Aug 3.0 19:57:39 10° SW 19:58:53 18° SW 19:58:53 18° SW visible
18 Aug 1.8 19:46:52 10° WSW 19:49:35 40° SW 19:49:35 40° SW visible
19 Aug 0.8 19:36:10 10° WSW 19:40:17 71° NNW 19:40:20 71° NNW visible
20 Aug 1.5 19:25:36 10° WSW 19:29:35 49° NNW 19:31:06 32° NNE visible
21 Aug 2.2 19:15:07 10° W 19:18:53 34° NNW 19:21:52 14° NNE visible
22 Aug 2.0 05:28:29 10° NW 05:32:22 40° NNE 05:36:16 10° E visible
22 Aug 2.8 19:04:47 10° W 19:08:12 25° NNW 19:11:36 10° NNE visible
23 Aug 1.3 05:17:36 10° NW 05:21:39 58° NNE 05:25:44 10° ESE visible
23 Aug 3.3 18:54:38 10° WNW 18:57:32 18° NNW 19:00:25 10° NNE visible
